Theta_e
327 323 316 308 295 290 286 290 295 296 300 303 303 302 311 322 322 316 347 354 354 357 361 362 364 365 364 362 361 360 360 360 361 361 361 361 360 361 362 362 363 363 359 357 357 355 354 353 353
324 321 311 299 288 283 286 292 295 297 300 302 302 302 305 317 332 342 345 354 356 357 360 361 364 364 363 361 359 359 360 360 360 361 361 360 360 361 362 362 362 361 359 358 356 355 354 352 351
315 321 305 296 285 284 285 290 294 296 301 301 300 304 311 323 335 345 350 355 356 357 360 361 363 363 363 361 360 359 360 360 360 361 361 360 361 362 362 362 361 360 358 356 354 353 353 351 350
308 306 303 293 288 289 289 292 296 299 302 302 302 301 309 339 338 347 354 356 355 357 359 362 362 362 362 361 360 359 359 361 360 360 360 361 361 361 361 362 361 361 358 356 353 353 351 350 349
305 299 291 288 290 291 295 298 297 298 299 300 301 301 305 345 352 353 353 355 353 355 358 360 362 361 362 361 360 359 359 361 360 359 360 360 360 361 361 362 361 361 358 356 353 352 352 352 351
297 296 288 286 290 295 297 298 298 297 297 300 301 301 311 348 349 351 353 351 354 354 358 359 362 361 360 360 359 359 358 360 360 359 359 359 359 359 360 360 360 359 357 354 353 352 352 351 350
292 290 286 287 290 292 297 298 297 296 296 299 302 300 307 338 350 351 350 351 352 356 356 357 358 359 361 359 358 358 358 359 359 358 357 358 358 358 358 358 358 358 357 355 354 353 352 351 350
293 289 284 285 287 288 296 296 296 296 298 304 305 298 300 327 349 347 351 350 352 355 355 354 355 355 356 356 359 358 358 358 358 358 358 358 358 358 358 356 357 358 356 354 354 352 352 350 349
292 284 281 284 287 290 295 293 298 302 299 301 303 303 309 333 332 328 336 346 350 352 352 353 353 352 352 352 354 357 358 358 358 358 359 356 352 353 355 355 357 356 355 354 353 351 350 349 349
288 282 284 290 292 291 292 293 296 297 297 298 300 304 312 322 324 322 321 321 344 347 349 351 351 350 351 350 351 352 352 353 353 353 353 349 348 347 351 353 355 355 354 353 352 351 350 347 338
287 286 290 292 293 293 291 292 296 294 292 296 297 300 305 319 322 319 318 318 319 336 348 349 349 349 349 349 348 349 351 351 351 352 351 345 346 345 345 343 347 344 350 342 344 341 340 337 337
288 293 292 294 296 293 291 294 294 294 295 299 300 301 305 314 317 318 317 317 321 327 347 349 349 348 349 348 347 347 347 347 347 348 345 343 340 340 339 339 341 339 337 337 336 336 336 337 338
289 292 295 297 296 294 295 294 294 295 298 300 301 302 302 304 315 315 318 320 323 328 346 347 348 348 348 347 347 346 345 345 345 347 342 339 337 337 337 337 338 337 335 335 333 334 335 334 335
294 295 295 295 294 294 293 294 294 299 300 299 299 299 299 302 306 315 316 318 322 339 342 349 349 348 347 346 345 344 345 344 344 344 342 339 338 337 339 338 336 335 335 334 334 334 335 333 337
295 292 294 293 294 293 295 293 294 298 298 297 298 299 299 300 302 306 308 315 327 339 343 345 349 348 346 345 344 343 342 340 339 341 339 340 340 338 338 339 336 336 335 334 334 332 334 338 338
292 288 283 291 294 296 293 287 296 299 297 297 299 299 300 299 300 303 307 327 341 338 341 342 346 348 345 343 342 340 339 337 335 338 336 339 340 341 338 338 337 336 334 334 336 339 338 337 335
288 283 286 290 294 295 291 291 295 300 297 295 297 297 298 298 299 300 304 329 338 339 341 340 344 344 341 339 338 337 335 335 335 337 336 336 340 344 339 337 335 334 338 340 339 334 335 333 334
286 285 287 289 295 296 294 293 298 298 298 299 298 297 296 297 298 300 302 317 337 337 339 341 340 340 338 338 336 334 333 335 336 338 338 336 338 345 338 336 339 341 337 333 331 329 328 329 329
292 290 289 292 296 294 294 294 296 299 297 295 296 296 295 296 300 301 303 328 337 336 336 339 337 335 336 334 332 331 331 334 335 339 340 337 340 342 339 341 341 337 334 330 328 325 324 323 324
291 289 288 292 296 294 293 292 296 298 296 298 299 299 298 296 299 301 302 329 337 335 335 337 336 337 337 336 336 335 334 336 336 340 340 340 341 343 343 340 336 334 332 329 328 327 324 323 321
289 288 289 288 293 293 292 290 293 297 298 298 299 300 299 298 298 302 303 330 334 335 334 336 338 338 336 337 336 335 337 341 338 338 339 341 344 344 341 337 334 330 330 328 326 326 324 319 317
287 293 294 293 290 284 292 281 290 293 295 298 299 300 301 301 300 300 302 318 332 335 337 337 338 339 337 336 339 336 334 334 336 339 341 343 344 341 337 334 332 330 328 326 325 325 323 319 314
291 296 292 291 288 285 288 283 289 292 291 294 297 299 300 300 298 298 301 306 331 334 335 337 337 339 339 333 340 339 334 335 341 342 342 341 339 337 335 332 330 328 326 323 322 318 315 315 313
297 292 290 288 285 281 286 285 286 289 291 293 297 299 300 301 301 300 300 302 320 333 335 334 335 336 337 331 335 339 336 339 339 340 338 337 336 334 333 330 327 324 323 320 317 315 313 311 310
290 284 274 272 279 278 287 285 288 292 296 296 296 297 299 300 299 299 299 299 309 330 332 333 333 333 334 331 335 339 337 340 339 339 337 334 332 331 327 326 323 321 320 317 315 313 312 311 310
288 284 276 269 271 275 286 280 285 295 298 299 300 298 300 299 298 298 299 299 305 325 330 331 332 332 332 334 335 337 338 339 339 339 337 334 333 330 327 324 322 320 318 316 315 314 312 311 311
287 280 289 280 282 279 281 284 290 294 295 296 297 298 297 297 298 299 301 300 300 321 327 328 330 332 333 334 339 339 338 339 338 337 335 333 331 328 324 322 320 318 317 316 314 313 310 310 309
291 291 280 286 275 274 279 280 282 287 291 295 294 295 296 298 299 300 300 300 301 313 326 329 329 330 333 334 338 340 338 338 335 334 332 330 328 325 323 321 318 316 315 314 313 310 309 309 308
285 280 286 285 283 276 276 279 288 289 291 292 293 295 296 296 297 299 300 299 299 304 325 330 330 329 330 332 334 337 335 333 333 331 329 327 325 324 322 319 317 315 314 313 311 310 310 309 306
289 286 289 283 282 284 281 282 295 292 292 294 295 297 298 299 299 300 300 301 301 304 325 331 333 330 330 333 332 334 333 333 331 328 327 326 322 323 322 318 316 315 314 312 312 312 310 306 303
Wind_Speed
8 6 1 4 5 6 4 8 3 2 5 3 2 6 8 9 8 9 4 11 18 20 19 20 20 21 22 19 19 20 21 20 20 20 20 20 20 19 19 17 15 13 15 13 12 12 11 10 9
4 3 4 3 6 2 7 6 10 5 6 12 7 6 7 10 7 1 7 9 21 20 19 20 23 20 22 22 20 19 20 21 21 19 19 19 19 19 18 16 14 13 14 12 12 11 10 9 8
3 1 4 5 4 8 7 5 4 2 8 5 6 8 6 5 1 11 2 14 17 17 16 18 24 22 21 23 22 20 21 21 22 21 19 19 18 18 17 15 14 13 12 11 11 9 9 7 6
2 5 5 4 9 7 5 4 5 8 6 4 6 5 11 3 6 6 15 19 18 16 15 21 24 23 22 21 21 20 19 21 21 21 20 19 18 17 16 14 13 12 11 10 9 7 7 5 4
4 3 2 3 6 5 5 9 2 5 5 7 7 10 13 4 6 15 14 15 17 16 16 21 25 24 22 22 21 20 20 19 20 21 20 18 17 16 15 13 11 11 10 8 8 6 5 4 3
4 4 2 5 5 5 6 5 6 3 3 8 11 10 7 6 7 10 13 11 8 10 13 15 20 22 22 20 21 21 20 19 18 20 20 18 15 14 13 12 10 10 9 8 7 6 5 4 3
6 4 4 3 3 4 4 6 6 6 5 5 9 7 8 11 6 9 11 10 10 8 10 12 14 18 21 20 19 19 19 18 17 17 18 17 15 12 12 10 9 9 8 7 6 6 5 3 2
6 5 2 2 1 7 4 8 4 3 4 3 5 6 9 22 6 9 7 9 8 8 12 14 13 14 13 13 20 19 19 18 17 16 16 16 14 12 11 10 9 8 8 7 5 5 4 3 4
3 4 0 3 3 6 10 7 2 4 5 3 0 1 4 9 17 16 14 8 5 10 12 11 14 14 12 14 15 17 20 18 17 15 15 12 6 7 8 8 7 7 7 6 5 5 3 4 5
5 4 6 7 6 8 7 7 12 4 8 4 3 4 4 6 9 8 11 11 8 9 16 14 13 14 12 11 14 11 10 8 8 8 9 4 5 5 6 7 8 7 6 5 5 5 4 4 3
2 4 5 8 9 7 8 7 7 5 5 5 5 4 6 5 5 3 7 8 5 16 9 16 14 14 15 12 10 7 5 6 5 10 10 4 4 3 3 2 1 2 4 1 3 2 2 2 2
3 6 3 7 8 7 6 4 5 6 7 5 6 4 2 5 3 5 2 6 11 16 9 11 15 15 14 11 9 9 8 8 8 8 7 6 3 4 3 3 3 3 2 3 3 2 3 1 3
4 2 5 7 11 8 8 9 7 8 9 8 7 6 3 3 8 4 7 7 2 10 9 12 14 15 13 13 10 9 7 7 7 9 6 5 4 4 3 3 3 3 2 1 2 2 2 3 4
5 10 11 5 8 7 6 8 1 20 2 7 8 11 6 7 8 11 11 5 7 6 8 11 13 15 13 13 12 10 9 8 7 6 7 6 5 4 4 4 4 3 3 3 3 1 1 2 4
5 10 11 4 5 5 5 10 13 11 6 9 10 10 8 8 9 11 10 8 9 10 4 11 11 14 14 13 10 8 8 8 6 5 6 7 6 5 5 3 4 4 3 2 2 1 2 0 3
6 3 6 7 5 7 3 12 10 12 7 13 14 11 12 8 8 9 9 7 12 15 15 12 10 14 13 14 10 7 7 8 5 4 4 6 5 5 5 4 4 1 2 3 3 3 3 3 5
5 6 6 8 1 6 1 18 4 12 9 9 12 9 12 7 9 7 10 10 13 18 21 20 17 14 13 11 10 9 8 7 8 5 5 7 6 5 5 4 2 4 4 4 4 3 4 4 4
11 8 8 13 17 18 18 24 17 8 10 13 12 8 9 9 11 5 10 7 12 15 20 19 13 14 10 7 8 6 6 5 6 7 6 7 5 5 4 4 4 4 5 4 4 5 4 3 4
11 14 18 15 16 17 22 26 22 13 9 10 12 9 8 10 7 5 9 7 9 11 14 15 13 11 9 7 6 7 10 7 7 8 11 8 7 6 6 4 6 4 7 5 6 4 5 4 2
13 16 18 14 15 14 18 27 19 15 10 13 15 13 10 6 4 5 7 7 13 15 16 14 15 11 12 10 9 6 10 8 9 7 8 10 8 7 6 7 5 6 7 5 4 2 3 3 4
11 11 14 12 8 9 13 29 19 14 9 8 10 11 10 10 10 6 8 10 11 14 15 16 15 15 12 9 6 4 3 5 4 3 3 5 11 8 8 7 7 6 5 4 4 4 5 4 4
14 5 6 10 7 13 9 20 27 12 21 16 14 14 17 17 8 7 9 8 9 14 16 16 16 17 13 7 8 13 12 11 6 8 5 6 12 10 8 8 6 7 5 5 4 3 3 4 5
5 4 1 7 11 5 11 7 26 8 13 12 13 17 18 15 8 9 10 12 13 12 13 15 16 14 15 11 9 10 10 4 7 7 13 11 8 13 10 8 7 6 5 4 6 5 5 3 4
3 4 16 5 2 8 10 15 18 13 14 7 14 14 14 14 10 9 10 11 13 11 12 13 15 14 13 14 8 9 7 9 10 9 10 8 7 9 9 8 7 6 6 6 6 6 7 6 6
7 7 6 6 3 8 6 10 16 7 12 10 10 11 13 12 9 7 9 9 10 15 12 11 13 15 14 14 13 8 8 9 14 14 11 14 9 9 8 9 8 6 6 7 7 7 6 6 6
12 8 5 7 4 5 5 11 7 12 14 13 9 8 11 10 9 8 8 10 12 15 17 13 14 14 15 14 14 7 9 8 10 12 12 11 10 11 11 9 10 8 9 9 8 6 6 7 6
4 4 4 6 10 9 6 7 10 13 12 8 8 8 10 9 8 7 9 10 14 15 18 18 17 17 17 16 14 12 10 14 12 14 12 9 12 11 12 13 11 9 10 9 8 7 7 7 5
12 4 1 3 5 7 5 4 9 9 5 4 6 8 9 8 8 9 7 9 11 15 16 17 19 19 18 17 13 13 12 14 14 14 13 14 12 12 13 13 13 10 10 9 9 8 7 9 5
1 3 5 4 4 4 6 5 7 10 11 5 7 8 7 8 9 9 8 8 9 11 16 19 18 16 15 15 14 13 14 15 15 15 15 15 15 12 13 14 12 11 10 7 9 10 9 9 7
4 5 5 4 3 5 5 14 11 6 3 2 5 7 7 7 9 12 11 9 7 10 14 18 17 17 18 17 17 16 15 17 16 16 15 17 16 11 12 14 13 11 9 7 11 11 8 8 8
Wind_Direction
323 304 181 45 62 64 262 260 273 41 331 45 344 247 212 199 186 211 310 155 136 148 156 164 161 146 139 137 137 134 132 131 129 129 129 129 129 130 129 129 131 135 135 137 134 132 135 137 136
321 330 45 85 98 94 262 244 249 107 318 321 319 293 285 235 177 85 123 164 148 150 157 161 158 148 142 139 139 139 136 135 132 131 131 131 131 131 130 129 132 136 138 140 139 138 139 141 136
308 36 87 116 137 201 229 219 285 5 303 304 305 254 271 257 91 163 187 152 144 148 155 161 155 148 145 142 143 145 142 138 134 134 133 132 132 132 133 133 135 139 142 142 140 142 138 136 137
39 14 32 114 220 265 230 282 2 3 324 337 302 326 314 282 153 157 146 149 151 150 154 161 155 149 147 144 144 146 145 140 138 135 135 136 137 135 137 140 142 145 147 145 139 146 139 142 153
36 56 86 249 251 271 281 305 38 330 310 316 343 305 299 29 66 121 147 157 158 157 158 160 155 151 148 148 146 148 148 144 141 139 138 140 142 142 142 145 147 147 148 146 143 155 160 165 187
51 93 85 244 263 302 294 296 339 359 13 320 347 317 278 52 92 130 140 146 148 153 153 156 152 146 147 150 149 150 150 148 146 142 141 143 146 145 144 147 150 149 149 154 155 175 197 191 225
109 89 215 239 275 299 271 348 340 331 360 344 303 330 290 2 3 131 136 130 138 142 153 157 153 149 148 149 151 150 151 150 148 144 144 144 145 147 144 149 151 154 156 153 166 192 222 224 269
106 92 333 292 322 283 270 337 286 317 307 319 358 345 322 329 61 12 32 121 125 140 159 164 160 153 147 151 153 154 153 151 149 146 146 145 146 150 153 156 163 167 166 166 191 213 238 273 299
99 65 338 266 319 261 297 303 174 258 253 353 254 218 286 46 31 31 18 338 151 155 167 166 162 159 153 157 160 154 154 154 149 147 149 145 144 156 160 157 173 181 182 188 211 233 256 283 292
97 114 230 213 225 249 262 264 290 295 301 209 276 302 342 67 60 23 15 0 295 208 170 172 167 165 155 157 158 153 154 152 148 146 151 144 143 152 150 166 185 199 197 202 222 246 267 292 298
65 200 234 267 255 270 266 282 260 251 273 233 267 300 332 60 58 39 10 12 301 297 243 171 169 167 162 160 158 158 145 149 146 158 161 136 134 159 149 134 161 205 216 216 241 281 273 256 320
303 260 268 296 309 318 274 275 291 225 231 243 253 235 162 125 151 161 282 11 355 315 231 204 166 168 168 158 157 160 161 160 163 176 162 155 157 172 167 168 187 195 198 202 224 234 256 323 301
203 271 294 276 292 270 276 267 249 267 238 255 273 294 271 186 170 218 170 150 9 288 224 200 180 171 170 167 161 158 160 163 167 175 172 152 154 178 165 188 200 193 194 192 242 247 7 347 294
293 293 292 276 258 255 263 272 343 270 116 255 258 268 247 194 201 194 225 161 125 249 241 190 191 176 170 176 172 163 163 164 163 168 168 158 162 173 171 190 207 209 193 202 223 213 232 283 270
267 307 315 253 248 275 241 305 252 305 323 291 278 274 267 237 183 191 206 198 178 155 181 223 193 187 174 172 171 168 161 152 165 161 155 171 175 180 176 189 207 218 192 156 247 227 187 254 58
339 357 343 287 309 270 131 271 300 280 283 280 280 272 270 246 241 183 201 197 181 167 162 202 200 194 184 171 167 168 163 154 151 151 156 182 181 166 187 193 224 173 156 148 186 160 120 117 81
346 265 281 302 149 277 200 287 257 313 296 279 282 272 271 264 266 203 216 177 177 171 174 183 182 192 188 178 160 162 161 164 161 152 156 182 174 183 198 198 140 164 119 128 138 81 90 93 82
271 264 256 280 295 304 296 277 290 270 284 283 276 271 264 268 242 188 215 224 168 174 174 179 184 177 177 194 153 142 157 160 165 164 168 178 166 181 163 125 149 120 110 101 86 106 68 92 100
263 266 265 274 283 284 286 281 289 285 265 276 277 276 251 262 242 206 207 196 168 176 176 184 179 178 168 164 156 161 169 171 179 172 172 170 161 154 141 138 126 124 127 143 128 109 97 60 41
247 260 268 270 260 271 281 276 281 272 244 251 266 271 266 245 237 198 194 182 174 182 188 183 184 179 183 180 177 177 168 181 176 170 172 159 143 132 140 134 131 129 120 124 135 120 109 84 34
246 252 272 277 289 270 300 285 279 266 263 255 255 258 249 231 243 210 182 191 181 184 191 193 187 184 191 182 173 155 127 140 120 134 150 141 130 129 128 125 136 116 110 126 122 112 112 126 43
270 269 280 307 307 283 174 278 274 258 260 252 262 259 259 255 218 225 180 182 200 194 196 204 191 182 192 176 185 183 185 185 171 146 143 140 132 123 113 119 119 116 109 119 109 105 109 114 123
250 319 267 284 271 290 231 255 276 208 250 254 245 246 250 247 215 204 181 185 199 208 194 194 201 196 185 176 191 183 198 185 131 144 137 128 122 114 119 117 111 115 107 113 110 99 95 84 115
236 357 312 300 150 243 235 218 274 239 250 241 253 254 253 255 241 211 192 182 192 194 205 190 191 197 193 184 182 184 179 132 126 133 123 120 123 106 103 109 112 105 104 104 96 90 79 90 82
37 29 318 330 225 244 320 238 245 269 264 233 249 263 261 254 242 216 194 184 190 181 205 188 185 196 192 190 184 185 151 142 146 148 142 137 133 117 131 125 110 100 108 106 89 85 90 79 83
289 171 197 242 232 264 331 256 249 228 251 249 264 286 269 250 245 243 219 191 188 197 191 195 192 197 189 191 186 160 158 144 143 146 148 141 138 131 131 125 111 118 107 88 93 88 79 84 84
256 173 207 268 273 265 222 286 304 264 256 260 284 308 275 260 246 272 264 207 188 194 193 186 196 200 186 188 177 161 148 147 151 144 142 132 131 132 132 122 119 102 98 99 97 94 83 82 75
206 186 6 185 256 259 255 245 244 297 284 296 292 292 326 317 300 281 275 235 197 197 193 199 192 192 183 177 176 160 153 141 142 131 134 132 124 132 128 121 112 111 104 103 104 96 77 81 58
148 209 213 227 207 251 300 233 221 231 245 234 304 298 305 312 301 286 278 268 206 198 189 195 199 179 169 158 162 152 145 139 137 136 134 129 130 133 136 118 117 113 107 108 103 88 87 82 79
195 238 187 258 261 234 262 266 238 261 199 296 310 329 339 325 313 304 292 264 250 197 188 196 197 170 168 156 152 149 142 141 136 138 140 138 126 140 138 121 115 110 116 117 97 91 88 97 87